Rijeka, Croatia

08:14 AM CEST am 01. Mai 2017 (GMT +0200)
Rijeka

Wetter Verlauf für LDRI - April, 2017

Change the Weather History Date:

Freitag, April 21, 2017

  Actual Average Record
Temperature  
mittlereTemperatur 48 °F -  
Max. Temperatur 57 °F - - ()
Min.Temperatur 39 °F - - ()
Degree Days  
Heizgradtage 17    
Moisture  
Taupunkt 22 °F    
Average Humidity 38    
Maximum Humidity 66    
Minimum Humidity 25    
Niederschlag  
Niederschlag 0.00 inch - - ()
Luftdruck in Meereshöhe  
Luftdruck in Meereshöhe 30.35 inch    
Wind  
Windgeschwindigkeit 7 mph ()    
Max. Windgeschwindigkeit 16 mph    
Max Gust Speed 29 mph    
Sichtweite 6.2 Meilen    
Ereignisse      
T = Trace of Precipitation, MM = Missing Value Source: Averaged Metar Reports

Daily Weather History Graph

Daily Weather History Graph

Search for Another Location

Airport or City:

Trip Planner

Search our weather history database for the weather conditions in past years. The results will help you decide how hot, cold, wet, or windy it might be!

Date:

Astronomie

Apr. 21, 2017 Aufgang Untergang
Genaue Zeit 06:06 CEST 19:55 CEST
Bürgerliche Dämmerung 05:35 CEST 20:26 CEST
Nautische Dämmerung 04:56 CEST 21:05 CEST
Astronomische Dämmerung 04:15 CEST 21:47 CEST
Mond 03:31 CEST (4/21) 14:02 CEST (4/21)
Länge des sichtbaren Lichts 14h 51m
Tageslänge
13h 48m
Letztes Viertel, 30% of the Moon is Illuminated
Apr 21
Letztes Viertel
Apr 26
Neu
Mai 3
Erstes Viertel
Mai 10
Vollmond
Mai 19
Letztes Viertel

Hourly Weather History & Observations

Zeit (CEST) Temp. Windchill Taupunkt Feuchtigkeit Druck Sichtweite Wind Dir Windgeschwindigkeit Böengeschwindigkeit Precip Ereignisse Wetterzustand
12:00 AM 44.6 °F 40.2 °F 19.4 °F 37% 30.39 inch 6.2 mi Ost 8.1 mph - N/A   Teils Wolkig
12:30 AM 42.8 °F 40.1 °F 19.4 °F 39% 30.39 inch 6.2 mi Ost-Nordost 4.6 mph - N/A   Teils Wolkig
1:00 AM 44.6 °F 42.2 °F 15.8 °F 31% 30.39 inch 6.2 mi Nordost 4.6 mph - N/A   Teils Wolkig
1:30 AM 44.6 °F 39.2 °F 17.6 °F 34% 30.39 inch 6.2 mi Nordost 10.4 mph - N/A   Teils Wolkig
2:00 AM 44.6 °F 40.7 °F 15.8 °F 31% 30.39 inch 6.2 mi Ost-Nordost 6.9 mph - N/A   Teils Wolkig
2:30 AM 42.8 °F 38.0 °F 19.4 °F 39% 30.39 inch 6.2 mi Nordwest 8.1 mph - N/A   Teils Wolkig
3:00 AM 42.8 °F 40.1 °F 15.8 °F 34% 30.39 inch 6.2 mi Ost 4.6 mph - N/A   Teils Wolkig
3:30 AM 41.0 °F - 21.2 °F 45% 30.36 inch 6.2 mi Wechselnd 2.3 mph - N/A   Teils Wolkig
4:00 AM 41.0 °F 35.2 °F 21.2 °F 45% 30.36 inch 6.2 mi Süd 9.2 mph - N/A   Teils Wolkig
4:30 AM 41.0 °F 35.8 °F 21.2 °F 45% 30.36 inch 6.2 mi Südwest 8.1 mph - N/A   Teils Wolkig
5:00 AM 41.0 °F 38.0 °F 17.6 °F 39% 30.36 inch 6.2 mi Nord-Nordost 4.6 mph - N/A   Teils Wolkig
5:30 AM 41.0 °F 35.8 °F 17.6 °F 39% 30.36 inch 6.2 mi Nord-Nordost 8.1 mph - N/A   Teils Wolkig
6:00 AM 39.2 °F 35.9 °F 21.2 °F 49% 30.36 inch - Süd 4.6 mph - N/A   Heiter
6:30 AM 41.0 °F - 21.2 °F 45% 30.36 inch - Wechselnd 2.3 mph - N/A   Heiter
7:00 AM 41.0 °F 35.8 °F 19.4 °F 42% 30.36 inch - Nord 8.1 mph - N/A   Heiter
7:30 AM 42.8 °F 36.6 °F 19.4 °F 39% 30.39 inch - Nord 11.5 mph - N/A   Heiter
8:00 AM 44.6 °F 39.2 °F 19.4 °F 37% 30.39 inch - Nord-Nordwest 10.4 mph - N/A   Heiter
8:30 AM 44.6 °F 38.8 °F 19.4 °F 37% 30.39 inch - Nord-Nordwest 11.5 mph - N/A   Heiter
9:00 AM 46.4 °F 40.7 °F 19.4 °F 34% 30.39 inch - Nord-Nordwest 12.7 mph - N/A   Heiter
9:30 AM 46.4 °F 41.5 °F 17.6 °F 32% 30.39 inch - Nord 10.4 mph - N/A   Heiter
10:00 AM 48.2 °F - 17.6 °F 30% 30.39 inch - Nord 13.8 mph - N/A   Heiter
10:30 AM 48.2 °F - 17.6 °F 30% 30.39 inch - Nord 16.1 mph 28.8 mph N/A   Heiter
11:00 AM 50.0 °F - 17.6 °F 28% 30.39 inch - Nord 13.8 mph - N/A   Heiter
11:30 AM 50.0 °F - 17.6 °F 28% 30.39 inch - Nord 13.8 mph - N/A   Heiter
12:00 PM 51.8 °F - 17.6 °F 26% 30.39 inch - Nord-Nordost 15.0 mph - N/A   Heiter
12:30 PM 51.8 °F - 19.4 °F 28% 30.36 inch - Nordost 10.4 mph - N/A   Heiter
1:00 PM 53.6 °F - 19.4 °F 26% 30.36 inch - Wechselnd 5.8 mph - N/A   Heiter
1:30 PM 53.6 °F - 19.4 °F 26% 30.36 inch - Wechselnd 6.9 mph - N/A   Heiter
2:00 PM 53.6 °F - 21.2 °F 28% 30.33 inch - Wechselnd 5.8 mph - N/A   Heiter
2:30 PM 55.4 °F - 21.2 °F 26% 30.33 inch - Südwest 8.1 mph - N/A   Heiter
3:00 PM 57.2 °F - 21.2 °F 25% 30.33 inch - Wechselnd 4.6 mph - N/A   Heiter
3:30 PM 57.2 °F - 23.0 °F 27% 30.30 inch - Wechselnd 5.8 mph - N/A   Heiter
4:00 PM 55.4 °F - 24.8 °F 31% 30.30 inch - West-Südwest 8.1 mph - N/A   Heiter
4:30 PM 55.4 °F - 23.0 °F 29% 30.30 inch - West 8.1 mph - N/A   Heiter
5:00 PM 55.4 °F - 26.6 °F 33% 30.30 inch - West 8.1 mph - N/A   Heiter
5:30 PM 55.4 °F - 28.4 °F 36% 30.30 inch - Südwest 8.1 mph - N/A   Heiter
6:00 PM 53.6 °F - 28.4 °F 38% 30.30 inch - Südwest 6.9 mph - N/A   Heiter
6:30 PM 53.6 °F - 26.6 °F 35% 30.30 inch - Südwest 6.9 mph - N/A   Heiter
7:00 PM 53.6 °F - 26.6 °F 35% 30.30 inch - Wechselnd 2.3 mph - N/A   Heiter
7:30 PM 51.8 °F - 28.4 °F 41% 30.30 inch - Südwest 3.5 mph - N/A   Heiter
8:00 PM 50.0 °F - 28.4 °F 43% 30.27 inch - Ruhig Ruhig - N/A   Heiter
8:30 PM 48.2 °F - 30.2 °F 50% 30.30 inch - Ruhig Ruhig - N/A   Heiter
9:00 PM 48.2 °F - 30.2 °F 50% 30.30 inch - Ost-Südost 2.3 mph - N/A   Heiter
9:30 PM 46.4 °F - 30.2 °F 53% 30.30 inch - Ost 2.3 mph - N/A   Heiter
10:00 PM 44.6 °F - 32.0 °F 61% 30.30 inch - Wechselnd 2.3 mph - N/A   Heiter
10:30 PM 44.6 °F 43.1 °F 32.0 °F 61% 30.30 inch - Ost-Südost 3.5 mph - N/A   Heiter
11:00 PM 42.8 °F 41.1 °F 32.0 °F 66% 30.30 inch - Ost-Südost 3.5 mph - N/A   Heiter
11:30 PM 44.6 °F 43.1 °F 32.0 °F 61% 30.30 inch - Ost 3.5 mph - N/A   Heiter